Weather History for KINL - May, 2013

Change the Weather History Date:

Tuesday, May 28, 2013

  Actual Average Record
Temperature  
Mean Temperature 60 °F 56 °F  
Max Temperature 71 °F 69 °F 92 °F (1919)
Min Temperature 48 °F 43 °F 27 °F (1947)
Degree Days  
Heating Degree Days 5 10  
Month to date heating degree days 466 391  
Since 1 July heating degree days 10542 10029  
Cooling Degree Days 0 0  
Month to date cooling degree days 0 0  
Year to date cooling degree days 0 1  
Growing Degree Days 10 (Base 50)    
Moisture  
Dew Point 46 °F    
Average Humidity 57    
Maximum Humidity 72    
Minimum Humidity 42    
Precipitation  
Precipitation 0.00 in 0.11 in 1.51 in (1972)
Month to date precipitation 4.68 2.54  
Year to date precipitation 11.36 6.21  
Snow  
Snow 0.00 in 0.00 in 0.30 in (1965)
Month to date snowfall T 0.2  
Since 1 July snowfall 98.6 71.0  
Snow Depth 0.00 in    
Sea Level Pressure  
Sea Level Pressure 29.76 in    
Wind  
Wind Speed 6 mph (SE)    
Max Wind Speed 15 mph    
Max Gust Speed 20 mph    
Visibility 10 miles    
Events      
T = Trace of Precipitation, MM = Missing Value Source: NWS Daily Summary

Daily Weather History Graph

Daily Weather History Graph

Search for Another Location

Airport or City:

Trip Planner

Search our weather history database for the weather conditions in past years. The results will help you decide how hot, cold, wet, or windy it might be!

Date:

Astronomy

May. 28, 2013 Rise Set
Actual Time 5:18 AM CDT 9:03 PM CDT
Civil Twilight 4:38 AM CDT 9:43 PM CDT
Nautical Twilight 3:44 AM CDT 10:38 PM CDT
Astronomical Twilight 2:25 AM CDT 11:59 PM CDT
Moon No Moon Rise 9:15 AM CDT (5/28)
Length of Visible Light 17h 05m
Length of Day
15h 45m
Waning Gibbous, 82% of the Moon is Illuminated
May 28
Waning Gibbous
May 31
Last Quarter
Jun 8
New
Jun 16
First Quarter
Jun 23
Full

Hourly Weather History & Observations

Time (CDT) Temp. Dew Point Humidity Pressure Visibility Wind Dir Wind Speed Gust Speed Precip Events Conditions
12:55 AM 60.1 °F 37.9 °F 44% 29.86 in 10.0 mi SSE 8.1 mph - N/A   Overcast
1:55 AM 57.9 °F 37.9 °F 47% 29.85 in 10.0 mi SE 5.8 mph - N/A   Overcast
2:55 AM 57.0 °F 37.0 °F 47% 29.83 in 10.0 mi ESE 8.1 mph - N/A   Overcast
3:55 AM 54.0 °F 37.9 °F 55% 29.83 in 10.0 mi SE 5.8 mph - N/A   Overcast
4:55 AM 53.1 °F 37.9 °F 57% 29.83 in 10.0 mi ESE 4.6 mph - N/A   Overcast
5:55 AM 48.0 °F 39.0 °F 71% 29.82 in 10.0 mi SE 4.6 mph - N/A   Partly Cloudy
6:55 AM 53.1 °F 39.9 °F 61% 29.81 in 10.0 mi ESE 8.1 mph - N/A   Clear
7:55 AM 55.0 °F 42.1 °F 62% 29.81 in 10.0 mi SE 8.1 mph - N/A   Overcast
8:06 AM 55.4 °F 42.8 °F 63% 29.80 in 10.0 mi SE 5.8 mph - N/A   Overcast
8:39 AM 55.4 °F 44.6 °F 67% 29.78 in 10.0 mi SE 6.9 mph - N/A   Overcast
8:55 AM 55.9 °F 44.1 °F 64% 29.79 in 10.0 mi SE 9.2 mph - N/A   Overcast
9:55 AM 57.9 °F 46.0 °F 65% 29.78 in 10.0 mi ESE 6.9 mph - N/A   Overcast
10:55 AM 61.0 °F 46.9 °F 60% 29.77 in 10.0 mi SE 10.4 mph - N/A   Overcast
11:55 AM 63.0 °F 48.0 °F 58% 29.76 in 10.0 mi ESE 9.2 mph - N/A   Overcast
12:55 PM 64.9 °F 48.9 °F 56% 29.75 in 10.0 mi SE 12.7 mph - N/A   Overcast
1:55 PM 68.0 °F 48.9 °F 50% 29.73 in 10.0 mi South 8.1 mph - N/A   Overcast
2:55 PM 69.1 °F 48.9 °F 49% 29.71 in 10.0 mi Variable 5.8 mph - N/A   Overcast
3:55 PM 70.0 °F 50.0 °F 49% 29.70 in 10.0 mi Variable 6.9 mph - N/A   Overcast
4:55 PM 69.1 °F 51.1 °F 53% 29.70 in 10.0 mi South 9.2 mph - N/A   Overcast
5:55 PM 70.0 °F 52.0 °F 53% 29.69 in 10.0 mi Variable 5.8 mph - N/A   Mostly Cloudy
6:55 PM 68.0 °F 52.0 °F 56% 29.69 in 10.0 mi Variable 4.6 mph - N/A   Overcast
7:55 PM 66.9 °F 53.1 °F 61% 29.69 in 10.0 mi SW 3.5 mph - N/A   Overcast
8:55 PM 66.0 °F 53.1 °F 63% 29.68 in 10.0 mi Calm Calm - N/A   Overcast
9:55 PM 64.0 °F 53.1 °F 67% 29.68 in 10.0 mi South 3.5 mph - N/A   Overcast
10:55 PM 63.0 °F 53.1 °F 70% 29.68 in 10.0 mi Variable 4.6 mph - N/A   Overcast
11:55 PM 62.1 °F 52.0 °F 70% 29.67 in 10.0 mi South 3.5 mph - N/A   Overcast